Starlink 34190

operational
NORAD ID: 64078 Int'l Des: 2025-107 Owner: SPXS Country: US Constellation: starlink
LEOCIRCULAR

Über Starlink 34190

Beschreibung wird geladen...

Live-Position

3D-Globus wird geladen...

Nächste Überflüge

Höhenverlauf

Altitude vs Time

uPlot chart will show altitude changes over time

Zweizeiliger Elementsatz

1 64078U 25107Q 25340.92285286 .00042797 00000-0 15516-2 0 9995
2 64078 43.0012 5.3887 0000917 249.9195 110.1558 15.27667744 31930
Epoch: 6. Dez. 2025 • Age: 16 hours

Aktueller Status

Höhe 482.8 km
Geschwindigkeit 7.63 km/s
Subsatellitenpunkt 25.71°N, 142.75°W
Startdatum 21. Mai 2025
Alter 0.5 years
Typ internet

Technische Details

Klassifizierung Payload
Masse 575.00 kg
Trockenmasse 530.00 kg
Gesamtmasse 575.00 kg
Länge 0.30 m
Durchmesser 4.10 m
Spannweite 29.00 m
Form Box + pan
Hersteller SPXS
Bus-Typ Starlink V2MO
Phasenstatus In Orbit
Besitzer/Staat SPXS/US

Große Konstellationen

Loading constellations...